Hinsdale, NY

9:14 AM EST on February 25, 2017 (GMT -0500)
Cattaraugus County-Olean

Weather History for KOLE - February, 2013

Change the Weather History Date:

Wednesday, February 27, 2013

  Actual Average (KBFD) Record (KBFD)
Temperature  
Mean Temperature 32 °F -  
Max Temperature 33 °F 34 °F 61 °F (1997)
Min Temperature 30 °F 15 °F -20 °F (1963)
Degree Days  
Heating Degree Days 34    
Moisture  
Dew Point 32 °F    
Average Humidity 99    
Maximum Humidity 100    
Minimum Humidity 93    
Precipitation  
Precipitation 0.00 in - - ()
Sea Level Pressure  
Sea Level Pressure 29.55 in    
Wind  
Wind Speed 4 mph (SSE)    
Max Wind Speed 9 mph    
Max Gust Speed -    
Visibility 4 miles    
Events Fog , Snow    
Averages and records for this station are not official NWS values.
T = Trace of Precipitation, MM = Missing Value Source: NWS Daily Summary

Daily Weather History Graph

Daily Weather History Graph

Search for Another Location

Airport or City:

Trip Planner

Search our weather history database for the weather conditions in past years. The results will help you decide how hot, cold, wet, or windy it might be!

Date:

Astronomy

Feb. 27, 2013 Rise Set
Actual Time 6:51 AM EST 6:01 PM EST
Civil Twilight 6:23 AM EST 6:29 PM EST
Nautical Twilight 5:50 AM EST 7:02 PM EST
Astronomical Twilight 5:18 AM EST 7:34 PM EST
Moon 8:24 PM EST (2/27) 7:22 AM EST (2/27)
Length of Visible Light 12h 06m
Length of Day
11h 09m
Waning Gibbous, 96% of the Moon is Illuminated
Feb 27
Waning Gibbous
Mar 4
Last Quarter
Mar 11
New
Mar 19
First Quarter
Mar 27
Full

Hourly Weather History & Observations

Time (EST) Temp. Windchill Dew Point Humidity Pressure Visibility Wind Dir Wind Speed Gust Speed Precip Events Conditions
12:15 AM 32.0 °F 24.2 °F 30.2 °F 93% 29.65 in 10.0 mi ESE 9.2 mph - N/A   Overcast
12:35 AM 32.0 °F 26.4 °F 30.2 °F 93% 29.65 in 10.0 mi ESE 5.8 mph - N/A   Overcast
12:55 AM 32.0 °F 24.8 °F 30.2 °F 93% 29.64 in 10.0 mi ESE 8.1 mph - N/A   Overcast
1:15 AM 30.2 °F 22.6 °F 30.2 °F 100% 29.63 in 10.0 mi ESE 8.1 mph - N/A   Overcast
1:35 AM 30.2 °F 23.4 °F 30.2 °F 100% 29.63 in 10.0 mi ESE 6.9 mph - N/A   Overcast
1:55 AM 30.2 °F 22.6 °F 30.2 °F 100% 29.62 in 10.0 mi ESE 8.1 mph - N/A   Overcast
2:15 AM 30.2 °F 24.3 °F 30.2 °F 100% 29.61 in 10.0 mi ESE 5.8 mph - N/A   Overcast
2:35 AM 30.2 °F 24.3 °F 30.2 °F 100% 29.60 in 10.0 mi ESE 5.8 mph - N/A   Overcast
2:55 AM 30.2 °F 21.9 °F 30.2 °F 100% 29.58 in 10.0 mi ESE 9.2 mph - N/A   Overcast
3:15 AM 30.2 °F 23.4 °F 30.2 °F 100% 29.57 in 10.0 mi ESE 6.9 mph - N/A   Overcast
3:35 AM 30.2 °F 23.4 °F 30.2 °F 100% 29.56 in 7.0 mi ESE 6.9 mph - N/A   Overcast
3:55 AM 32.0 °F 28.7 °F 30.2 °F 93% 29.55 in 7.0 mi ESE 3.5 mph - N/A   Overcast
4:35 AM 32.0 °F 27.5 °F 30.2 °F 93% 29.54 in 10.0 mi SE 4.6 mph - N/A   Overcast
4:55 AM 32.0 °F 26.4 °F 30.2 °F 93% 29.54 in 10.0 mi ESE 5.8 mph - N/A   Overcast
5:15 AM 32.0 °F 27.5 °F 30.2 °F 93% 29.54 in 10.0 mi ESE 4.6 mph - N/A   Overcast
5:35 AM 32.0 °F 27.5 °F 32.0 °F 100% 29.54 in 7.0 mi SE 4.6 mph - N/A   Overcast
5:55 AM 32.0 °F 28.7 °F 32.0 °F 100% 29.53 in 7.0 mi ESE 3.5 mph - N/A   Overcast
6:15 AM 32.0 °F - 32.0 °F 100% 29.53 in 5.0 mi Calm Calm - N/A Snow Light Snow
6:35 AM 32.0 °F 27.5 °F 32.0 °F 100% 29.53 in 5.0 mi SE 4.6 mph - N/A   Overcast
6:55 AM 32.0 °F 28.7 °F 32.0 °F 100% 29.52 in 10.0 mi ESE 3.5 mph - N/A   Overcast
7:35 AM 32.0 °F - 32.0 °F 100% 29.53 in 4.0 mi Calm Calm - N/A   Overcast
7:55 AM 32.0 °F - 32.0 °F 100% 29.53 in 1.8 mi Calm Calm - N/A Snow Light Snow
8:15 AM 32.0 °F - 32.0 °F 100% 29.53 in 1.2 mi Calm Calm - N/A Snow Light Snow
8:35 AM 32.0 °F - 32.0 °F 100% 29.54 in 1.2 mi Calm Calm - N/A Snow Light Snow
8:55 AM 32.0 °F - 32.0 °F 100% 29.54 in 1.5 mi Calm Calm - N/A Snow Light Snow
9:15 AM 32.0 °F - 32.0 °F 100% 29.54 in 1.2 mi Calm Calm - N/A Snow Light Snow
9:35 AM 32.0 °F - 32.0 °F 100% 29.53 in 1.0 mi Calm Calm - N/A Snow Light Snow
9:55 AM 32.0 °F - 32.0 °F 100% 29.53 in 1.0 mi Calm Calm - N/A Snow Light Snow
10:15 AM 32.0 °F - 32.0 °F 100% 29.53 in 0.8 mi Calm Calm - N/A Snow Light Snow
10:35 AM 32.0 °F - 32.0 °F 100% 29.53 in 0.8 mi Calm Calm - N/A Snow Snow
10:55 AM 32.0 °F - 32.0 °F 100% 29.53 in 0.5 mi Calm Calm - N/A Snow Snow
11:15 AM 32.0 °F - 32.0 °F 100% 29.53 in 0.8 mi Calm Calm - N/A Snow Light Snow
11:35 AM 32.0 °F - 32.0 °F 100% 29.53 in 1.0 mi Calm Calm - N/A Snow Light Snow
11:55 AM 32.0 °F - 32.0 °F 100% 29.53 in 0.8 mi Calm Calm - N/A Snow Light Snow
12:15 PM 32.0 °F - 32.0 °F 100% 29.53 in 1.0 mi Calm Calm - N/A Snow Light Snow
12:35 PM 32.0 °F - 32.0 °F 100% 29.53 in 0.5 mi Calm Calm - N/A Snow Snow
12:55 PM 32.0 °F - 32.0 °F 100% 29.52 in 1.0 mi Calm Calm - N/A Snow Light Snow
1:15 PM 32.0 °F - 32.0 °F 100% 29.52 in 1.2 mi Calm Calm - N/A Snow Light Snow
1:35 PM 32.0 °F - 32.0 °F 100% 29.52 in 1.5 mi Calm Calm - N/A Snow Light Snow
1:55 PM 32.0 °F - 32.0 °F 100% 29.51 in 1.5 mi Calm Calm - N/A Snow Light Snow
2:15 PM 33.8 °F 30.8 °F 32.0 °F 93% 29.52 in 2.0 mi West 3.5 mph - N/A Snow Light Snow
2:35 PM 32.0 °F 28.7 °F 32.0 °F 100% 29.52 in 4.0 mi WSW 3.5 mph - N/A Snow Light Snow
2:55 PM 32.0 °F 27.5 °F 32.0 °F 100% 29.52 in 4.0 mi WSW 4.6 mph - N/A Snow Light Snow
3:35 PM 32.0 °F - 32.0 °F 100% 29.52 in 10.0 mi Calm Calm - N/A   Overcast
3:55 PM 32.0 °F 28.7 °F 32.0 °F 100% 29.52 in 7.0 mi West 3.5 mph - N/A Snow Light Snow
4:15 PM 32.0 °F - 32.0 °F 100% 29.52 in 4.0 mi Calm Calm - N/A Snow Light Snow
4:35 PM 32.0 °F 27.5 °F 32.0 °F 100% 29.53 in 5.0 mi WSW 4.6 mph - N/A Snow Light Snow
4:55 PM 32.0 °F - 32.0 °F 100% 29.53 in 3.0 mi Calm Calm - N/A Snow Light Snow
5:15 PM 32.0 °F - 32.0 °F 100% 29.54 in 1.8 mi Calm Calm - N/A Snow Light Snow
5:35 PM 32.0 °F - 32.0 °F 100% 29.54 in 1.5 mi Calm Calm - N/A Snow Light Snow
5:55 PM 32.0 °F - 32.0 °F 100% 29.54 in 1.0 mi Calm Calm - N/A Snow Light Snow
6:15 PM 32.0 °F - 32.0 °F 100% 29.54 in 0.5 mi Calm Calm - N/A   Overcast
6:35 PM 32.0 °F 28.7 °F 32.0 °F 100% 29.55 in 1.0 mi SW 3.5 mph - N/A   Overcast
6:55 PM 32.0 °F - 32.0 °F 100% 29.55 in 0.2 mi Calm Calm - N/A Fog Fog
7:15 PM 32.0 °F 26.4 °F 32.0 °F 100% 29.55 in 0.5 mi WSW 5.8 mph - N/A Snow Light Snow
7:35 PM 32.0 °F 26.4 °F 32.0 °F 100% 29.55 in 5.0 mi WSW 5.8 mph - N/A   Overcast
7:55 PM 32.0 °F 26.4 °F 32.0 °F 100% 29.54 in 5.0 mi WSW 5.8 mph - N/A   Light Drizzle
8:15 PM 32.0 °F 26.4 °F 32.0 °F 100% 29.54 in 10.0 mi WSW 5.8 mph - N/A   Overcast
8:35 PM 32.0 °F - 32.0 °F 100% 29.54 in 4.0 mi Calm Calm - N/A   Overcast
9:15 PM 32.0 °F - 32.0 °F 100% 29.54 in 0.8 mi Calm Calm - N/A Snow Light Snow
9:35 PM 32.0 °F - 32.0 °F 100% 29.54 in 0.2 mi Calm Calm - N/A Snow Light Snow
9:55 PM 32.0 °F - 32.0 °F 100% 29.54 in 0.5 mi Calm Calm - N/A Fog Fog
10:15 PM 32.0 °F - 32.0 °F 100% 29.53 in 4.0 mi Calm Calm - N/A Snow Light Snow
10:35 PM 32.0 °F - 32.0 °F 100% 29.53 in 4.0 mi Calm Calm - N/A Snow Light Snow
10:55 PM 32.0 °F - 32.0 °F 100% 29.53 in 5.0 mi Calm Calm - N/A   Overcast
11:15 PM 32.0 °F - 32.0 °F 100% 29.53 in 5.0 mi Calm Calm - N/A Snow Light Snow
11:35 PM 32.0 °F - 32.0 °F 100% 29.52 in 5.0 mi Calm Calm - N/A   Overcast
11:55 PM 32.0 °F - 32.0 °F 100% 29.52 in 7.0 mi Calm Calm - N/A   Overcast